Temperature
17 17 17 17 17 17 17 17 17 17 17 17 17 17 17 17 17 17 17 17 17 17 16 16 16 16 17 16 16 16 16 16 16 16 16 16 16 16 16 15 15 15 15
17 17 17 17 17 17 17 17 17 17 17 17 17 17 17 17 17 16 16 16 16 16 16 16 16 16 16 16 16 16 16 16 16 16 15 15 15 16 16 15 15 15 15
16 17 17 16 17 17 17 17 17 17 16 16 16 16 16 16 16 16 16 16 16 16 16 16 16 16 16 16 16 16 16 16 16 15 15 15 15 15 15 15 15 15 15
16 16 16 16 16 16 16 16 16 16 16 16 16 16 16 16 16 16 16 16 16 16 16 16 16 16 16 16 16 16 16 16 15 15 15 15 15 15 15 15 15 15 15
15 16 16 16 16 16 16 16 16 16 16 16 16 16 16 16 16 16 16 16 16 16 16 16 16 16 16 16 16 16 16 15 15 15 15 15 15 15 15 15 15 15 15
15 16 16 16 16 16 16 16 16 16 16 16 16 16 16 16 16 16 16 16 16 16 16 16 16 15 15 15 15 15 15 15 15 15 15 15 14 15 15 15 15 15 14
15 15 16 16 16 16 16 16 16 16 16 16 16 16 16 16 16 16 16 16 15 15 15 15 15 15 15 15 15 15 15 15 15 14 14 14 14 14 14 14 14 14 14
15 15 15 15 15 15 15 16 16 16 16 16 15 15 15 15 15 15 15 15 15 15 15 15 15 15 15 15 15 15 15 15 14 14 14 14 14 14 14 14 14 14 14
15 15 15 15 15 15 15 15 15 15 15 15 15 15 15 15 15 15 15 15 15 15 15 15 15 15 15 15 15 15 14 14 14 14 14 14 14 14 14 14 14 14 14
14 14 14 15 15 15 15 15 15 15 15 15 15 15 15 14 14 14 14 14 14 14 14 14 14 14 14 14 14 14 14 14 14 14 13 13 14 14 14 14 14 14 13
14 14 14 14 14 15 15 15 15 15 15 14 14 14 14 14 14 14 14 14 14 14 14 14 14 14 14 14 14 14 14 14 13 13 13 13 13 13 13 13 13 13 13
14 14 14 14 14 14 14 14 14 14 14 14 14 14 14 14 14 14 14 14 14 14 14 14 13 13 13 13 13 13 13 13 13 13 13 13 13 13 13 13 13 13 13
14 14 14 14 14 14 14 14 14 14 14 14 13 13 13 13 13 13 13 13 13 13 13 13 13 13 13 13 13 13 13 13 13 13 13 13 13 13 12 12 13 13 13
14 14 14 14 14 14 13 13 13 13 13 13 13 13 13 13 13 13 13 13 13 13 13 12 12 12 12 12 12 12 12 12 12 12 12 12 12 12 12 12 12 12 12
13 13 13 13 13 13 13 13 13 13 13 13 13 13 13 13 12 12 12 12 12 12 12 12 12 12 12 12 12 12 12 12 12 12 12 12 12 12 11 11 11 11 11
13 13 13 13 13 13 13 13 12 12 12 12 12 12 12 12 12 12 12 12 12 12 11 11 11 11 11 11 11 11 11 11 11 11 11 11 11 11 11 11 11 11 11
13 13 13 13 13 13 12 12 12 12 12 12 12 12 12 12 12 11 11 11 11 11 11 11 11 11 10 10 10 10 10 10 10 10 10 10 10 10 10 10 10 10 10
13 13 13 13 12 12 12 12 12 12 12 12 12 12 12 11 11 11 11 11 11 11 11 10 10 10 10 10 10 10 10 10 10 10 10 10 10 10 10 9 9 9 9
13 13 12 12 12 12 12 12 11 11 11 11 11 11 11 11 11 11 11 10 10 10 10 10 9 9 9 9 9 9 9 9 9 9 9 9 9 9 9 9 9 9 9
13 12 12 12 12 12 11 11 11 11 11 11 11 11 10 10 10 10 10 10 10 10 9 9 9 9 8 8 8 8 8 8 8 8 8 8 8 8 8 8 8 8 8
12 12 12 12 11 11 11 11 11 11 10 10 10 10 10 10 10 10 10 9 9 9 9 9 8 8 8 8 8 7 8 8 8 8 8 8 7 7 8 7 7 7 7
12 12 12 11 11 11 11 11 10 10 10 10 10 10 10 9 9 9 9 9 9 9 9 8 8 8 7 7 7 6 6 6 7 7 7 7 7 7 7 7 7 7 7
12 11 11 11 11 11 10 10 10 10 9 9 9 9 9 9 9 9 8 8 8 8 8 8 7 7 7 7 6 6 5 5 5 6 6 6 6 6 6 6 6 6 6
11 11 11 11 10 10 10 10 10 9 9 9 9 9 9 8 8 8 8 8 8 7 7 7 7 6 6 6 6 5 5 5 5 5 5 5 5 5 6 6 6 6 6
11 10 10 10 10 10 10 10 9 9 9 9 8 8 8 8 8 8 8 7 7 7 7 7 6 6 6 5 5 5 5 5 4 4 4 5 5 5 5 5 5 5 5
10 10 10 9 9 9 9 9 9 9 8 8 8 8 8 8 8 7 7 7 7 6 6 6 6 6 5 5 5 5 4 4 4 4 4 4 4 4 5 5 5 5 5
Wind_Speed
8 11 12 12 13 12 12 12 12 12 12 11 11 11 11 11 11 11 10 10 10 9 9 8 7 8 8 8 8 8 8 7 7 6 6 5 5 5 5 5 5 4 5
12 13 14 13 13 13 13 13 12 12 12 12 11 11 11 11 11 11 11 10 10 9 9 8 8 7 7 7 7 7 7 6 5 4 3 2 3 3 4 4 4 4 5
13 14 14 14 14 14 13 13 13 13 12 12 11 11 11 11 11 11 10 10 10 9 9 8 8 8 8 7 7 6 6 5 3 3 2 0 1 2 3 3 2 2 3
13 14 13 14 14 14 14 14 13 13 12 12 12 11 11 11 11 10 10 10 10 9 9 8 8 8 7 7 7 6 5 4 3 3 2 2 3 3 2 2 2 1 1
13 14 14 15 14 14 14 14 13 13 12 12 12 12 11 11 11 11 11 10 10 10 10 9 8 8 7 7 6 5 4 4 4 4 4 4 4 4 3 3 2 2 1
13 15 15 15 14 14 14 14 13 13 12 12 12 12 12 11 11 11 11 10 10 10 10 10 9 9 8 6 6 5 5 5 5 4 3 4 4 4 3 3 2 2 2
12 14 15 16 15 14 14 14 13 13 12 12 11 11 11 11 11 10 10 10 10 10 10 9 9 9 8 8 7 6 6 6 5 4 4 4 4 4 3 3 2 2 2
13 13 14 15 15 14 14 13 13 12 12 11 11 10 10 10 10 10 10 10 9 9 9 8 8 8 8 7 7 7 7 6 5 4 4 4 5 4 4 3 3 3 3
11 11 11 13 13 14 14 13 12 12 11 11 10 9 9 9 9 10 10 9 8 8 7 7 7 7 7 7 7 7 7 6 6 4 4 4 6 5 4 4 4 4 4
9 9 9 11 11 11 12 12 12 11 10 10 9 7 7 8 8 8 8 8 8 7 6 6 6 6 5 5 6 7 7 6 5 4 4 5 6 5 5 5 5 5 5
8 7 7 8 9 10 10 10 10 10 9 8 7 6 5 6 6 6 6 6 6 6 5 5 5 5 5 4 5 6 6 5 6 4 4 4 5 5 6 6 6 6 6
8 7 7 7 7 7 8 8 7 7 6 6 6 5 6 6 5 5 4 4 4 4 4 4 4 4 4 4 4 4 4 4 5 4 4 4 4 5 6 7 7 7 7
8 7 7 7 6 6 5 5 5 6 5 6 6 5 5 5 4 4 4 3 3 4 4 4 4 3 3 3 3 3 4 3 3 3 3 4 5 7 8 8 8 9 9
9 8 7 7 6 5 5 4 4 4 4 4 5 6 5 3 3 3 3 4 4 4 3 4 3 3 4 4 3 3 4 3 2 2 3 4 6 7 8 9 9 10 10
9 8 7 7 6 4 4 3 4 3 4 5 5 5 5 3 2 2 2 3 4 4 3 3 3 3 3 3 3 3 3 4 4 3 3 5 7 8 9 10 10 11 11
9 9 7 7 6 5 4 3 3 4 5 5 5 5 5 4 3 2 2 2 3 4 4 3 3 2 2 2 2 3 3 4 4 4 4 5 7 8 10 10 11 11 12
9 9 8 7 7 6 5 3 3 4 5 4 4 5 5 4 4 3 1 1 2 4 4 4 3 3 2 3 3 3 3 3 4 4 5 5 6 8 10 11 11 12 13
10 9 8 7 7 6 5 3 3 4 4 3 4 4 4 4 3 3 1 1 3 3 3 2 2 2 3 3 3 4 3 3 4 4 4 5 5 6 8 10 12 13 14
10 10 9 8 7 6 5 3 3 4 3 3 4 4 3 3 3 2 1 2 3 2 2 2 2 2 3 3 4 4 3 4 5 5 4 5 5 6 6 9 11 13 14
10 10 9 8 7 6 5 4 3 3 2 3 3 3 3 2 2 2 1 2 3 1 2 2 3 3 3 3 5 5 4 5 5 5 5 4 4 6 6 8 8 10 14
10 10 9 9 7 6 4 4 3 2 1 1 2 3 2 2 2 2 1 1 2 1 2 2 2 3 3 3 3 5 5 5 5 4 4 4 5 6 7 8 8 8 9
10 9 9 9 8 7 5 4 3 3 2 1 1 2 2 1 1 1 0 1 1 2 3 2 2 2 3 3 2 4 4 4 3 5 4 5 5 5 6 7 7 7 8
10 10 9 8 8 7 6 4 3 2 2 1 1 1 1 1 0 1 1 1 2 2 2 3 2 3 3 3 2 1 2 5 6 4 4 5 5 5 5 5 7 8 10
8 8 8 8 7 7 6 5 5 3 2 2 2 1 1 1 1 1 1 1 2 2 3 3 3 3 3 4 3 2 4 5 5 7 5 4 6 7 6 7 7 8 10
7 7 8 8 7 6 6 6 5 3 2 1 1 1 1 1 1 2 2 2 2 3 3 4 4 4 3 4 4 4 4 5 5 7 10 8 6 6 6 7 7 8 9
7 7 7 7 6 6 6 5 5 4 3 2 2 2 2 1 2 2 2 2 3 3 3 4 4 5 5 5 5 4 4 5 5 6 9 10 9 7 7 6 6 7 8
Wind_Direction
105 103 102 97 94 93 93 93 89 89 87 86 87 86 83 80 79 80 82 80 79 78 76 73 70 68 64 61 58 58 61 61 57 58 63 72 76 77 75 69 73 72 87
111 108 103 99 95 94 94 92 90 89 88 87 86 86 84 81 79 79 79 78 76 75 73 69 67 68 64 60 57 56 57 57 53 54 60 64 82 90 79 72 73 67 86
111 109 103 100 97 95 94 93 90 88 88 86 85 84 84 81 78 79 79 75 72 71 70 68 64 64 61 59 55 53 51 49 38 20 2 323 112 107 92 82 80 82 88
109 106 105 103 99 97 94 93 91 89 87 86 85 84 84 81 78 77 77 75 71 67 65 63 58 56 58 55 50 45 42 27 3 341 353 48 63 83 89 85 71 88 95
106 103 105 106 102 99 96 93 90 89 86 85 85 84 83 81 78 73 73 73 70 67 64 59 54 50 52 50 45 37 26 5 350 346 12 37 51 58 74 82 77 61 45
106 103 105 106 104 101 97 93 90 88 87 85 84 82 81 79 76 73 71 71 69 66 63 58 53 48 47 44 38 27 15 356 338 346 31 35 50 53 61 64 60 43 25
108 106 108 105 102 99 98 95 92 88 87 85 84 82 80 78 76 73 70 69 68 65 59 54 49 44 42 39 30 16 4 355 344 353 20 32 41 41 39 37 21 347 330
111 110 109 105 102 99 97 95 92 90 87 85 84 83 82 79 76 72 69 68 67 64 59 55 48 44 40 33 24 11 1 353 351 358 17 35 39 38 25 19 12 2 350
112 115 115 111 105 100 97 95 94 92 89 85 83 83 84 81 77 73 67 65 64 61 56 51 45 41 36 29 22 10 356 349 341 353 8 39 35 27 11 7 358 346 340
115 118 122 120 114 107 101 99 97 95 93 91 88 87 89 86 80 75 69 63 59 55 49 44 38 34 27 22 15 1 349 349 345 360 23 39 36 22 4 352 344 334 327
116 117 116 112 111 112 112 109 107 101 98 97 91 83 81 80 83 77 72 65 57 49 40 33 28 23 15 8 360 352 352 356 351 3 29 36 18 2 349 340 333 327 323
132 123 116 111 108 110 112 115 111 103 98 89 84 76 73 68 74 82 81 69 51 37 25 20 14 9 10 4 355 351 349 355 355 1 22 23 354 337 326 321 317 313 312
135 121 113 111 105 101 100 108 101 97 90 80 76 72 70 65 62 61 57 44 34 29 18 1 359 358 1 5 0 342 342 358 354 351 352 339 327 319 313 311 309 306 303
131 123 115 112 107 102 101 103 100 93 87 77 66 63 67 56 46 44 50 35 31 26 14 359 350 357 358 360 352 342 344 344 335 342 321 309 308 306 307 308 306 303 300
133 132 126 121 116 107 98 98 94 94 92 90 78 61 62 64 55 42 41 30 27 19 11 353 349 351 346 344 343 343 335 331 327 329 319 299 296 299 301 302 303 302 300
141 138 132 130 125 117 111 105 98 97 97 88 81 69 62 60 55 42 29 24 17 7 358 351 335 326 317 323 314 321 317 316 321 325 322 309 297 297 298 297 299 300 301
145 138 137 137 131 129 126 119 107 108 103 95 89 78 65 57 49 44 31 15 4 0 352 345 333 336 322 327 322 317 313 310 307 309 307 306 302 295 293 294 296 298 299
144 141 141 143 137 135 129 124 109 106 101 100 100 90 74 58 51 38 29 0 359 360 347 313 320 331 325 322 312 305 298 295 292 291 291 290 290 288 287 294 296 296 297
148 144 142 140 141 137 131 121 105 102 101 99 98 95 85 65 50 40 18 357 2 357 326 318 331 321 312 308 297 292 289 286 284 288 283 280 276 275 276 287 295 296 297
143 140 143 141 142 136 131 120 107 104 105 98 97 98 88 73 50 32 14 356 358 341 326 322 315 317 306 299 305 298 282 275 272 270 275 278 276 277 281 282 280 285 289
141 144 149 149 149 140 138 137 133 138 140 121 107 115 99 74 48 41 4 344 337 323 310 310 312 314 310 311 314 305 285 265 264 267 272 274 275 282 280 276 273 273 279
149 151 152 152 149 145 146 145 143 142 148 146 128 124 123 98 33 5 360 301 305 314 314 310 309 304 305 321 319 318 312 300 291 287 278 276 278 283 279 280 278 276 278
154 157 156 151 150 148 143 131 121 102 93 87 150 179 161 153 251 318 326 307 297 291 293 291 292 298 296 302 309 298 303 292 308 278 276 275 280 282 277 282 278 279 281
153 149 147 149 150 147 141 139 142 150 173 200 182 197 232 190 218 263 283 294 288 287 289 293 301 286 286 292 294 276 263 279 294 301 291 284 284 284 282 289 285 280 276
136 140 145 148 148 145 144 148 154 163 183 170 161 188 231 236 230 245 251 271 275 277 278 285 289 283 273 270 278 281 286 290 278 284 294 294 283 273 276 277 277 278 277
130 134 142 147 149 148 148 153 160 165 162 164 192 210 232 246 248 251 253 256 264 273 273 274 275 274 271 268 269 268 274 277 284 283 289 296 293 284 278 274 273 277 278
Height
1499 1501 1502 1504 1505 1507 1508 1510 1511 1512 1513 1514 1515 1516 1516 1517 1518 1518 1519 1520 1520 1521 1522 1522 1523 1523 1523 1523 1524 1524 1524 1524 1524 1524 1524 1524 1524 1524 1525 1525 1525 1525 1525
1498 1501 1502 1504 1506 1507 1509 1510 1511 1513 1514 1515 1515 1516 1517 1518 1518 1519 1520 1520 1521 1521 1522 1522 1523 1523 1523 1523 1524 1524 1524 1524 1524 1524 1525 1525 1525 1525 1525 1525 1525 1525 1525
1498 1500 1502 1504 1506 1508 1509 1511 1512 1513 1514 1515 1516 1517 1517 1518 1519 1519 1520 1521 1521 1522 1522 1523 1523 1523 1523 1524 1524 1524 1524 1524 1525 1525 1525 1525 1525 1525 1525 1525 1525 1525 1525
1498 1500 1502 1504 1506 1508 1509 1511 1512 1513 1514 1515 1516 1517 1518 1518 1519 1520 1520 1521 1521 1522 1522 1523 1523 1523 1523 1523 1524 1524 1524 1524 1525 1525 1525 1525 1525 1524 1524 1524 1524 1524 1524
1499 1500 1503 1505 1506 1508 1510 1511 1512 1513 1514 1515 1516 1517 1518 1519 1519 1520 1520 1521 1521 1522 1522 1522 1523 1523 1523 1523 1523 1523 1524 1524 1524 1524 1524 1524 1524 1524 1524 1524 1523 1524 1524
1499 1501 1503 1505 1506 1508 1510 1511 1512 1513 1515 1516 1516 1517 1518 1519 1519 1520 1520 1520 1521 1521 1522 1522 1522 1522 1523 1523 1523 1523 1523 1523 1523 1523 1524 1524 1523 1523 1523 1523 1523 1523 1522
1499 1501 1503 1505 1506 1508 1509 1511 1512 1513 1515 1516 1516 1517 1518 1518 1519 1519 1520 1520 1521 1521 1521 1521 1522 1522 1522 1522 1522 1522 1522 1522 1522 1522 1522 1522 1522 1522 1522 1521 1521 1521 1521
1499 1501 1503 1505 1506 1508 1509 1511 1512 1513 1514 1515 1516 1517 1517 1518 1519 1519 1519 1520 1520 1520 1520 1521 1521 1521 1521 1521 1521 1521 1521 1521 1521 1521 1521 1521 1521 1521 1520 1520 1520 1519 1519
1499 1501 1503 1505 1506 1508 1509 1511 1512 1513 1514 1515 1516 1516 1517 1517 1518 1518 1519 1519 1519 1519 1519 1519 1520 1520 1520 1520 1520 1520 1520 1520 1520 1520 1520 1519 1519 1519 1518 1518 1518 1517 1517
1500 1501 1503 1504 1506 1507 1509 1510 1511 1512 1513 1514 1515 1516 1516 1517 1517 1518 1518 1518 1518 1518 1518 1518 1518 1518 1518 1518 1518 1518 1518 1518 1518 1518 1518 1518 1517 1517 1516 1516 1515 1515 1515
1500 1501 1503 1504 1505 1507 1508 1510 1511 1512 1513 1514 1514 1515 1516 1516 1517 1517 1517 1517 1518 1518 1517 1517 1517 1517 1517 1517 1517 1517 1517 1516 1516 1516 1516 1515 1515 1514 1514 1513 1513 1512 1512
1499 1501 1502 1503 1505 1506 1508 1509 1510 1511 1512 1513 1514 1514 1515 1515 1516 1516 1516 1516 1516 1516 1516 1516 1516 1516 1516 1515 1515 1515 1515 1514 1514 1514 1513 1513 1512 1511 1511 1510 1510 1509 1508
1498 1499 1501 1503 1504 1505 1507 1508 1509 1510 1511 1512 1513 1513 1514 1514 1515 1515 1515 1515 1515 1515 1515 1515 1514 1514 1514 1513 1513 1513 1512 1512 1512 1511 1510 1510 1509 1508 1508 1507 1506 1505 1505
1496 1498 1500 1502 1503 1505 1506 1507 1508 1510 1511 1511 1512 1513 1513 1513 1514 1514 1514 1514 1514 1513 1513 1513 1513 1512 1512 1512 1511 1511 1510 1509 1509 1508 1507 1507 1506 1505 1504 1503 1502 1501 1501
1494 1496 1498 1500 1502 1504 1505 1506 1507 1509 1510 1511 1511 1512 1512 1512 1512 1513 1513 1512 1512 1512 1512 1511 1511 1510 1510 1509 1509 1508 1507 1507 1506 1505 1504 1503 1502 1501 1500 1499 1499 1498 1497
1492 1494 1496 1499 1501 1502 1504 1505 1506 1507 1509 1509 1510 1511 1511 1511 1511 1511 1511 1511 1511 1510 1510 1509 1509 1508 1507 1507 1506 1505 1504 1504 1503 1502 1501 1500 1499 1498 1496 1495 1495 1494 1493
1490 1492 1494 1497 1499 1500 1502 1504 1505 1506 1507 1508 1509 1509 1510 1510 1510 1510 1510 1510 1509 1509 1508 1507 1507 1506 1505 1504 1503 1502 1501 1500 1499 1498 1497 1496 1495 1494 1493 1491 1491 1490 1489
1488 1490 1492 1495 1497 1499 1500 1502 1503 1505 1506 1506 1507 1508 1508 1508 1508 1508 1508 1508 1507 1507 1506 1505 1504 1503 1502 1501 1500 1499 1498 1496 1495 1494 1493 1492 1491 1490 1488 1487 1486 1485 1484
1485 1487 1490 1492 1494 1496 1498 1500 1502 1503 1504 1505 1506 1506 1506 1507 1507 1507 1506 1506 1505 1505 1504 1503 1502 1501 1499 1498 1496 1495 1494 1493 1491 1490 1489 1488 1487 1486 1484 1483 1482 1481 1479
1483 1485 1487 1490 1492 1494 1496 1498 1500 1501 1502 1503 1504 1504 1505 1505 1505 1505 1504 1504 1503 1502 1501 1500 1499 1498 1497 1495 1493 1491 1490 1488 1487 1486 1485 1484 1483 1481 1480 1479 1477 1476 1474
1480 1482 1484 1487 1489 1491 1493 1495 1497 1498 1500 1501 1502 1503 1503 1503 1503 1502 1502 1501 1501 1500 1499 1498 1496 1495 1494 1493 1490 1487 1485 1484 1483 1482 1481 1480 1478 1477 1475 1474 1472 1471 1469
1476 1479 1482 1484 1486 1489 1491 1493 1495 1497 1498 1499 1500 1501 1501 1501 1500 1500 1499 1499 1498 1497 1496 1495 1494 1492 1491 1490 1489 1485 1481 1479 1478 1478 1477 1475 1474 1472 1471 1469 1468 1465 1464
1472 1475 1478 1481 1484 1486 1489 1491 1493 1494 1495 1497 1497 1498 1498 1498 1498 1497 1497 1496 1495 1494 1493 1492 1491 1489 1488 1487 1487 1486 1482 1477 1473 1471 1471 1470 1469 1468 1466 1464 1462 1460 1458
1470 1473 1475 1478 1481 1484 1486 1488 1489 1491 1492 1493 1494 1495 1495 1495 1495 1495 1494 1493 1492 1491 1490 1489 1488 1487 1485 1483 1483 1483 1482 1479 1474 1467 1465 1465 1464 1462 1461 1459 1457 1454 1452
1467 1470 1473 1476 1479 1481 1483 1485 1487 1489 1490 1491 1491 1492 1492 1492 1492 1492 1491 1490 1489 1488 1486 1485 1484 1483 1482 1480 1479 1478 1477 1475 1473 1469 1461 1458 1457 1456 1455 1453 1451 1448 1446
1464 1467 1470 1473 1475 1478 1480 1483 1484 1486 1487 1487 1488 1488 1488 1488 1488 1488 1488 1487 1485 1484 1483 1482 1480 1479 1478 1476 1475 1473 1472 1470 1468 1466 1460 1454 1451 1449 1448 1447 1445 1443 1440